Grand Island, NE

7:39 AM CDT on October 24, 2017 (GMT -0500)
Central Nebraska Regional

Weather History for KGRI - November, 2010

Change the Weather History Date:

Sunday, November 14, 2010

  Actual Average Record
Temperature  
Mean Temperature 38 °F 39 °F  
Max Temperature 49 °F 50 °F 71 °F (2001)
Min Temperature 26 °F 28 °F -7 °F (1940)
Degree Days  
Heating Degree Days 27 26  
Month to date heating degree days 269 318  
Since 1 July heating degree days 623 841  
Cooling Degree Days 0 0  
Month to date cooling degree days 0 0  
Year to date cooling degree days 1139 1034  
Moisture  
Dew Point 26 °F    
Average Humidity 64    
Maximum Humidity 92    
Minimum Humidity 36    
Precipitation  
Precipitation 0.00 in 0.04 in 0.75 in (1947)
Month to date precipitation 0.31 0.58  
Year to date precipitation 28.92 25.44  
Snow  
Snow 0.00 in 0.10 in 4.30 in (1947)
Month to date snowfall 0.0 1.1  
Since 1 July snowfall 0.0 2.2  
Since 1 September snowfall 0.0 2.2  
Snow Depth 0.00 in    
Sea Level Pressure  
Sea Level Pressure 29.94 in    
Wind  
Wind Speed 10 mph (WSW)    
Max Wind Speed 21 mph    
Max Gust Speed 28 mph    
Visibility 10 miles    
Events      
T = Trace of Precipitation, MM = Missing Value Source: NWS Daily Summary

Daily Weather History Graph

Daily Weather History Graph

Search for Another Location

Airport or City:

Trip Planner

Search our weather history database for the weather conditions in past years. The results will help you decide how hot, cold, wet, or windy it might be!

Date:

Astronomy

Nov. 14, 2010 Rise Set
Actual Time 7:19 AM CST 5:15 PM CST
Civil Twilight 6:50 AM CST 5:44 PM CST
Nautical Twilight 6:16 AM CST 6:18 PM CST
Astronomical Twilight 5:44 AM CST 6:50 PM CST
Moon 1:37 PM CST (11/14) 12:26 AM CST (11/14)
Length of Visible Light 10h 54m
Length of Day
9h 55m
First Quarter, 60% of the Moon is Illuminated
Nov 14
First Quarter
Nov 21
Full
Nov 28
Last Quarter
Dec 5
New
Dec 13
First Quarter

Hourly Weather History & Observations

Time (CST) Temp. Windchill Dew Point Humidity Pressure Visibility Wind Dir Wind Speed Gust Speed Precip Events Conditions
12:53 AM 30.2 °F 23.4 °F 26.6 °F 86% 30.03 in 10.0 mi West 6.9 mph - N/A   Overcast
1:53 AM 33.1 °F 26.9 °F 28.0 °F 82% 30.05 in 10.0 mi West 6.9 mph - N/A   Overcast
2:53 AM 32.0 °F 26.4 °F 28.0 °F 85% 30.05 in 10.0 mi West 5.8 mph - N/A   Mostly Cloudy
3:53 AM 32.0 °F 26.4 °F 28.0 °F 85% 30.05 in 10.0 mi West 5.8 mph - N/A   Mostly Cloudy
4:53 AM 28.0 °F 21.7 °F 25.0 °F 88% 30.04 in 10.0 mi WNW 5.8 mph - N/A   Clear
5:53 AM 27.0 °F 20.5 °F 25.0 °F 92% 30.04 in 10.0 mi West 5.8 mph - N/A   Clear
6:53 AM 27.0 °F 18.0 °F 24.1 °F 89% 30.04 in 10.0 mi West 9.2 mph - N/A   Clear
7:53 AM 27.0 °F 18.0 °F 24.1 °F 89% 30.05 in 10.0 mi West 9.2 mph - N/A   Clear
8:53 AM 30.9 °F 22.2 °F 26.1 °F 82% 30.04 in 10.0 mi WSW 10.4 mph - N/A   Clear
9:53 AM 35.1 °F 28.6 °F 28.0 °F 76% 30.02 in 10.0 mi West 8.1 mph - N/A   Clear
10:53 AM 39.9 °F 32.5 °F 28.0 °F 63% 30.00 in 10.0 mi West 12.7 mph - N/A   Clear
11:53 AM 44.1 °F 37.4 °F 27.0 °F 51% 29.96 in 10.0 mi West 13.8 mph 21.9 mph N/A   Clear
12:53 PM 46.0 °F 39.6 °F 26.1 °F 46% 29.92 in 10.0 mi West 15.0 mph - N/A   Clear
1:53 PM 48.0 °F - 27.0 °F 44% 29.88 in 10.0 mi West 17.3 mph - N/A   Mostly Cloudy
2:53 PM 48.0 °F - 25.0 °F 41% 29.86 in 10.0 mi West 13.8 mph - N/A   Scattered Clouds
3:53 PM 48.0 °F - 23.0 °F 37% 29.85 in 10.0 mi West 16.1 mph 20.7 mph N/A   Clear
4:53 PM 41.0 °F 35.8 °F 24.1 °F 51% 29.84 in 10.0 mi WSW 8.1 mph - N/A   Clear
5:53 PM 37.0 °F 31.0 °F 24.1 °F 59% 29.84 in 10.0 mi SW 8.1 mph - N/A   Clear
6:53 PM 37.0 °F 31.0 °F 25.0 °F 62% 29.84 in 10.0 mi SW 8.1 mph - N/A   Clear
7:53 PM 37.0 °F 30.4 °F 26.1 °F 65% 29.83 in 10.0 mi SSW 9.2 mph - N/A   Clear
8:53 PM 37.0 °F 29.8 °F 25.0 °F 62% 29.82 in 10.0 mi SW 10.4 mph - N/A   Partly Cloudy
9:53 PM 37.0 °F 29.8 °F 25.0 °F 62% 29.81 in 10.0 mi WSW 10.4 mph - N/A   Clear
10:53 PM 34.0 °F 26.0 °F 26.1 °F 73% 29.80 in 10.0 mi WSW 10.4 mph - N/A   Clear
11:53 PM 34.0 °F 26.0 °F 27.0 °F 75% 29.79 in 10.0 mi West 10.4 mph - N/A   Mostly Cloudy